Track EXPLORER 11 now! 10-day predictions EXPLORER 11 is classified as:
1 00107U 61013A 21017.75182632 .00000654 00000-0 65464-4 0 9998 2 00107 28.7926 51.0511 0545960 259.3660 94.4995 14.09092501996473